Date,TemperatureHighF,TemperatureAvgF,TemperatureLowF,DewpointHighF,DewpointAvgF,DewpointLowF,HumidityHigh,HumidityAvg,HumidityLow,PressureMaxIn,PressureMinIn,WindSpeedMaxMPH,WindSpeedAvgMPH,GustSpeedMaxMPH,PrecipitationSumIn
2013-10-1,73.4,60.5,51.3,61.8,55.8,50.7,98,86,62,30.04,29.88,4,0,0,0.00
2013-10-2,75.9,63.3,55.6,60.8,49.3,38.9,98,66,29,30.01,29.83,6,1,0,0.00
2013-10-3,71.2,57.4,45.1,49.5,45.7,41.5,98,69,36,30.16,30.01,3,0,0,0.00
2013-10-4,60.4,55.9,51.3,49.4,46.8,44.2,92,72,57,30.20,30.11,3,0,0,0.00
2013-10-5,63.3,54.3,49.1,49.2,42.6,37.8,94,67,39,30.25,30.16,4,0,0,0.00
2013-10-6,55.2,48.8,42.8,50.9,40.4,33.7,98,75,45,30.25,29.93,10,3,0,0.81
2013-10-7,63.9,54.5,46.4,63.3,54.0,45.9,98,98,98,29.93,29.57,5,2,0,0.05
2013-10-8,57.2,46.6,38.7,44.4,40.1,37.4,98,80,50,30.42,29.82,9,1,0,0.00
2013-10-9,64.4,47.1,34.0,47.6,39.7,33.5,98,80,37,30.50,30.36,4,0,0,0.00
2013-10-10,73.8,52.4,38.3,49.4,43.7,37.8,98,77,35,30.36,30.25,3,0,0,0.00
2013-10-11,75.9,54.7,39.7,52.5,46.6,39.2,98,79,40,30.26,30.21,4,0,0,0.00
2013-10-12,69.4,55.7,46.2,54.6,50.3,45.7,98,84,52,30.37,30.26,5,1,0,0.00
2013-10-13,66.2,54.6,46.8,54.8,51.0,46.2,98,89,62,30.42,30.31,5,1,0,0.00
2013-10-14,66.9,56.2,47.3,61.3,53.3,46.8,98,91,61,30.34,30.25,4,0,0,0.19
2013-10-15,57.4,49.5,40.6,51.3,47.3,40.1,98,93,77,30.35,30.11,5,1,0,0.00
2013-10-16,58.1,54.3,50.0,57.5,53.7,49.5,98,98,98,30.10,29.77,4,0,0,0.14
2013-10-17,57.2,52.9,48.4,54.7,51.3,47.8,98,94,81,29.82,29.73,4,1,0,0.30
2013-10-18,56.1,48.6,42.1,52.8,47.4,41.6,98,96,69,29.84,29.67,5,0,0,0.30
2013-10-19,52.3,45.8,37.8,51.1,44.9,37.2,98,97,86,29.89,29.60,3,0,0,0.07
2013-10-20,48.7,43.4,35.6,46.6,39.1,33.2,98,85,64,29.99,29.54,6,2,0,0.31
2013-10-21,45.0,38.8,30.4,44.4,38.0,29.9,98,97,85,30.04,29.81,3,0,0,0.02
2013-10-22,49.5,43.8,36.0,46.2,38.9,29.4,98,84,54,29.80,29.65,6,2,0,0.33
2013-10-23,46.2,36.3,29.3,34.7,30.4,25.6,98,80,54,29.71,29.63,8,1,0,0.00
2013-10-24,39.7,33.3,28.0,35.5,29.3,22.4,98,85,72,29.85,29.64,5,1,0,0.01
2013-10-25,41.0,34.4,30.2,32.4,28.6,25.6,98,80,61,30.09,29.85,6,1,0,0.00
2013-10-28,27.3,26.9,26.4,22.6,22.4,22.3,84,83,82,30.41,30.40,0,0,0,0.00
2013-10-29,37.9,28.7,21.9,24.3,21.8,19.9,98,77,50,30.48,30.33,5,1,0,0.00
2013-10-30,42.4,31.1,23.5,29.0,24.7,20.3,98,79,51,30.32,30.16,5,1,0,0.00
2013-10-31,54.1,38.4,27.1,53.6,37.8,25.7,98,98,93,30.18,29.51,4,0,0,1.30